Time,TemperatureF,DewpointF,PressureIn,WindDirection,WindDirectionDegrees,WindSpeedMPH,WindSpeedGustMPH,Humidity,HourlyPrecipIn,Conditions,Clouds,dailyrainin,SoftwareType,DateUTC
2013-01-07 00:02:00,4.0,-10.0,-100.00,NW,325,7.0,8.0,52,0.00,,,-99.99,,2013-01-07 07:02:00,
2013-01-07 00:12:00,5.0,-9.0,-100.00,NW,320,6.0,8.0,52,0.00,,,-99.99,,2013-01-07 07:12:00,
2013-01-07 00:22:00,5.0,-9.0,-100.00,NW,320,6.0,8.0,52,0.00,,,-99.99,,2013-01-07 07:22:00,
2013-01-07 00:33:00,4.0,-9.0,-100.00,NW,315,7.0,11.0,53,0.00,,,-99.99,,2013-01-07 07:33:00,
2013-01-07 00:42:00,9.0,-6.0,-100.00,NW,310,7.0,9.0,50,0.00,,,-99.99,,2013-01-07 07:42:00,
2013-01-07 00:53:00,9.0,-6.0,-100.00,WNW,300,6.0,7.0,48,0.00,,,-99.99,,2013-01-07 07:53:00,
2013-01-07 01:03:00,6.0,-9.0,-100.00,NW,320,5.0,9.0,48,0.00,,,-99.99,,2013-01-07 08:03:00,
2013-01-07 01:12:00,5.0,-9.0,-100.00,NW,315,6.0,7.0,50,0.00,,,-99.99,,2013-01-07 08:12:00,
2013-01-07 01:22:00,5.0,-9.0,-100.00,NW,325,6.0,7.0,51,0.00,,,-99.99,,2013-01-07 08:22:00,
2013-01-07 01:32:00,4.0,-10.0,-100.00,NW,305,4.0,9.0,52,0.00,,,-99.99,,2013-01-07 08:32:00,
2013-01-07 01:42:00,2.0,-11.0,-100.00,NW,325,4.0,9.0,52,0.00,,,-99.99,,2013-01-07 08:42:00,
2013-01-07 01:52:00,4.0,-10.0,-100.00,WNW,300,4.0,5.0,52,0.00,,,-99.99,,2013-01-07 08:52:00,
2013-01-07 02:02:00,5.0,-9.0,-100.00,NW,320,6.0,8.0,52,0.00,,,-99.99,,2013-01-07 09:02:00,
2013-01-07 02:12:00,4.0,-9.0,-100.00,NNW,330,7.0,10.0,53,0.00,,,-99.99,,2013-01-07 09:12:00,
2013-01-07 02:22:00,4.0,-9.0,-100.00,NNW,330,7.0,10.0,53,0.00,,,-99.99,,2013-01-07 09:22:00,
2013-01-07 02:32:00,6.0,-8.0,-100.00,NNW,335,10.0,14.0,52,0.00,,,-99.99,,2013-01-07 09:32:00,
2013-01-07 02:42:00,6.0,-8.0,-100.00,NW,315,6.0,12.0,52,0.00,,,-99.99,,2013-01-07 09:42:00,
2013-01-07 02:52:00,7.0,-7.0,-100.00,NNW,335,9.0,12.0,52,0.00,,,-99.99,,2013-01-07 09:52:00,
2013-01-07 03:02:00,6.0,-8.0,-100.00,WNW,300,5.0,9.0,52,0.00,,,-99.99,,2013-01-07 10:02:00,
2013-01-07 03:12:00,4.0,-10.0,-100.00,WNW,285,6.0,9.0,51,0.00,,,-99.99,,2013-01-07 10:12:00,
2013-01-07 03:22:00,4.0,-10.0,-100.00,WNW,290,6.0,8.0,51,0.00,,,-99.99,,2013-01-07 10:22:00,
2013-01-07 03:32:00,10.0,-6.0,-100.00,West,270,6.0,9.0,47,0.00,,,-99.99,,2013-01-07 10:32:00,
2013-01-07 03:42:00,7.0,-9.0,-100.00,West,280,6.0,10.0,48,0.00,,,-99.99,,2013-01-07 10:42:00,
2013-01-07 03:52:00,7.0,-9.0,-100.00,West,280,6.0,10.0,48,0.00,,,-99.99,,2013-01-07 10:52:00,
2013-01-07 04:02:00,6.0,-10.0,-100.00,WNW,290,6.0,9.0,48,0.00,,,-99.99,,2013-01-07 11:02:00,
2013-01-07 04:12:00,3.0,-12.0,-100.00,West,280,4.0,7.0,50,0.00,,,-99.99,,2013-01-07 11:12:00,
2013-01-07 04:22:00,3.0,-11.0,-100.00,NW,310,7.0,9.0,50,0.00,,,-99.99,,2013-01-07 11:22:00,
2013-01-07 04:33:00,3.0,-11.0,-100.00,NW,305,7.0,10.0,50,0.00,,,-99.99,,2013-01-07 11:33:00,
2013-01-07 04:43:00,4.0,-11.0,-100.00,NNW,335,5.0,9.0,50,0.00,,,-99.99,,2013-01-07 11:43:00,
2013-01-07 04:53:00,4.0,-10.0,-100.00,NW,305,7.0,9.0,49,0.00,,,-99.99,,2013-01-07 11:53:00,
2013-01-07 05:03:00,4.0,-11.0,-100.00,WNW,295,4.0,6.0,49,0.00,,,-99.99,,2013-01-07 12:03:00,
2013-01-07 05:12:00,0.0,-13.0,-100.00,West,275,6.0,8.0,52,0.00,,,-99.99,,2013-01-07 12:12:00,
2013-01-07 05:22:00,1.0,-12.0,-100.00,NW,325,5.0,8.0,52,0.00,,,-99.99,,2013-01-07 12:22:00,
2013-01-07 05:33:00,2.0,-11.0,-100.00,West,280,4.0,8.0,52,0.00,,,-99.99,,2013-01-07 12:33:00,
2013-01-07 05:43:00,3.0,-11.0,-100.00,NW,305,4.0,9.0,51,0.00,,,-99.99,,2013-01-07 12:43:00,
2013-01-07 05:52:00,1.0,-12.0,-100.00,WNW,300,5.0,8.0,51,0.00,,,-99.99,,2013-01-07 12:52:00,
2013-01-07 06:02:00,-1.0,-14.0,-100.00,WNW,295,6.0,7.0,52,0.00,,,-99.99,,2013-01-07 13:02:00,
2013-01-07 06:12:00,0.0,-13.0,-100.00,WNW,300,6.0,7.0,52,0.00,,,-99.99,,2013-01-07 13:12:00,
2013-01-07 06:23:00,-2.0,-14.0,-100.00,WNW,300,6.0,7.0,54,0.00,,,-99.99,,2013-01-07 13:23:00,
2013-01-07 06:33:00,-3.0,-15.0,-100.00,NW,310,6.0,9.0,54,0.00,,,-99.99,,2013-01-07 13:33:00,
2013-01-07 06:42:00,1.0,-12.0,-100.00,NW,305,9.0,12.0,53,0.00,,,-99.99,,2013-01-07 13:42:00,
2013-01-07 06:52:00,2.0,-11.0,-100.00,NNW,340,4.0,12.0,52,0.00,,,-99.99,,2013-01-07 13:52:00,
2013-01-07 07:03:00,4.0,-10.0,-100.00,NNW,335,4.0,9.0,51,0.00,,,-99.99,,2013-01-07 14:03:00,
2013-01-07 07:12:00,-2.0,-16.0,-100.00,WNW,285,3.0,6.0,51,0.00,,,-99.99,,2013-01-07 14:12:00,
2013-01-07 07:22:00,-2.0,-16.0,-100.00,WNW,285,3.0,6.0,51,0.00,,,-99.99,,2013-01-07 14:22:00,
2013-01-07 07:33:00,0.0,-13.0,-100.00,West,270,5.0,7.0,52,0.00,,,-99.99,,2013-01-07 14:33:00,
2013-01-07 07:42:00,-2.0,-16.0,-100.00,NNW,335,6.0,7.0,52,0.00,,,-99.99,,2013-01-07 14:42:00,
2013-01-07 07:53:00,-3.0,-16.0,-100.00,West,260,6.0,10.0,52,0.00,,,-99.99,,2013-01-07 14:53:00,
2013-01-07 08:03:00,-2.0,-15.0,-100.00,WNW,300,6.0,8.0,52,0.00,,,-99.99,,2013-01-07 15:03:00,
2013-01-07 08:12:00,2.0,-12.0,-100.00,WNW,285,7.0,9.0,51,0.00,,,-99.99,,2013-01-07 15:12:00,
2013-01-07 08:22:00,1.0,-13.0,-100.00,WNW,290,6.0,8.0,50,0.00,,,-99.99,,2013-01-07 15:22:00,
2013-01-07 08:33:00,-1.0,-14.0,-100.00,WNW,285,5.0,7.0,52,0.00,,,-99.99,,2013-01-07 15:33:00,
2013-01-07 08:43:00,-1.0,-14.0,-100.00,WNW,285,6.0,7.0,52,0.00,,,-99.99,,2013-01-07 15:43:00,
2013-01-07 08:53:00,2.0,-12.0,-100.00,NW,320,2.0,6.0,51,0.00,,,-99.99,,2013-01-07 15:53:00,
2013-01-07 09:02:00,4.0,-11.0,-100.00,NW,325,4.0,5.0,49,0.00,,,-99.99,,2013-01-07 16:02:00,
2013-01-07 09:12:00,4.0,-11.0,-100.00,NW,325,4.0,5.0,49,0.00,,,-99.99,,2013-01-07 16:12:00,
2013-01-07 09:22:00,7.0,-9.0,-100.00,NNW,335,3.0,6.0,47,0.00,,,-99.99,,2013-01-07 16:22:00,
2013-01-07 09:33:00,9.0,-7.0,-100.00,NW,305,3.0,4.0,45,0.00,,,-99.99,,2013-01-07 16:33:00,
2013-01-07 09:43:00,9.0,-8.0,-100.00,NNW,335,2.0,4.0,45,0.00,,,-99.99,,2013-01-07 16:43:00,
2013-01-07 09:53:00,9.0,-7.0,-100.00,NW,310,3.0,4.0,46,0.00,,,-99.99,,2013-01-07 16:53:00,
2013-01-07 10:02:00,14.0,-4.0,-100.00,West,275,2.0,5.0,43,0.00,,,-99.99,,2013-01-07 17:02:00,
2013-01-07 10:12:00,17.0,-2.0,-100.00,SW,220,2.0,4.0,41,0.00,,,-99.99,,2013-01-07 17:12:00,
2013-01-07 10:23:00,20.0,-1.0,-100.00,SSW,210,2.0,3.0,38,0.00,,,-99.99,,2013-01-07 17:23:00,
2013-01-07 10:33:00,22.0,0.0,-100.00,NNE,25,2.0,4.0,37,0.00,,,-99.99,,2013-01-07 17:33:00,
2013-01-07 10:42:00,22.0,-1.0,-100.00,NNW,345,2.0,3.0,35,0.00,,,-99.99,,2013-01-07 17:42:00,
2013-01-07 10:53:00,24.0,0.0,-100.00,NNW,345,1.0,2.0,34,0.00,,,-99.99,,2013-01-07 17:53:00,
2013-01-07 11:03:00,23.0,-1.0,-100.00,NNW,330,2.0,2.0,34,0.00,,,-99.99,,2013-01-07 18:03:00,
2013-01-07 11:12:00,21.0,0.0,-100.00,West,280,1.0,3.0,38,0.00,,,-99.99,,2013-01-07 18:12:00,
2013-01-07 11:23:00,21.0,1.0,-100.00,WNW,285,1.0,2.0,40,0.00,,,-99.99,,2013-01-07 18:23:00,
2013-01-07 11:33:00,24.0,2.0,-100.00,NNW,345,1.0,1.0,38,0.00,,,-99.99,,2013-01-07 18:33:00,
2013-01-07 11:42:00,26.0,3.0,-100.00,ESE,120,2.0,2.0,36,0.00,,,-99.99,,2013-01-07 18:42:00,
2013-01-07 11:52:00,24.0,2.0,-100.00,ENE,60,2.0,3.0,37,0.00,,,-99.99,,2013-01-07 18:52:00,
2013-01-07 12:03:00,28.0,4.0,-100.00,North,10,2.0,3.0,35,0.00,,,-99.99,,2013-01-07 19:03:00,
2013-01-07 12:12:00,25.0,1.0,-100.00,NW,310,4.0,5.0,35,0.00,,,-99.99,,2013-01-07 19:12:00,
2013-01-07 12:22:00,30.0,4.0,-100.00,NNW,330,2.0,4.0,33,0.00,,,-99.99,,2013-01-07 19:22:00,
2013-01-07 12:33:00,36.0,6.0,-100.00,West,260,1.0,2.0,27,0.00,,,-99.99,,2013-01-07 19:33:00,
2013-01-07 12:42:00,31.0,2.0,-100.00,West,275,2.0,3.0,28,0.00,,,-99.99,,2013-01-07 19:42:00,
2013-01-07 12:52:00,29.0,2.0,-100.00,WNW,285,2.0,3.0,31,0.00,,,-99.99,,2013-01-07 19:52:00,
2013-01-07 13:03:00,31.0,6.0,-100.00,West,275,0.0,3.0,33,0.00,,,-99.99,,2013-01-07 20:03:00,
2013-01-07 13:12:00,34.0,6.0,-100.00,SE,130,2.0,3.0,30,0.00,,,-99.99,,2013-01-07 20:12:00,
2013-01-07 13:23:00,34.0,6.0,-100.00,SE,130,2.0,3.0,30,0.00,,,-99.99,,2013-01-07 20:23:00,
2013-01-07 13:33:00,34.0,6.0,-100.00,SE,130,2.0,3.0,30,0.00,,,-99.99,,2013-01-07 20:33:00,
2013-01-07 13:42:00,34.0,6.0,-100.00,SE,130,2.0,3.0,30,0.00,,,-99.99,,2013-01-07 20:42:00,